[[{"header":{"parameterUnit":"m.s-1","parameterCategory":1,"la1":30.2991,"la2":30.254,"lo1":-89.0895,"lo2":-89.0444,"dy":0.0017,"dx":0.0017,"nx":28,"ny":28,"refTime":"2025-06-14T03:00:00:Z","depth":0,"parameterNumber":2,"parameterNumberName":"U-component_of_WINDS"},"data":[0,0,0,0,0,0,0,0,0,0,0,0,0,0,0,0,0,0,0,0,0,0,0,0,0,0,0,0,0,0,0,0,0,0,0,0,0,0,0,0,0,0,0,0,0,0,0,0,0,0,0,0,0,0,0,0,0,0,1.1127,1.1124,0,1.0922,1.092,1.0918,1.0769,1.0768,1.0766,1.0765,1.0555,1.0551,1.0546,0,0,0,0,0,0,0,0,0,0,0,0,0,1.1386,1.1382,1.1127,1.1124,1.1122,1.0923,1.092,1.0917,1.0769,1.0768,1.0766,1.0765,1.0556,1.0551,1.0546,0,0,0,0,0,0,0,0,0,0,0,0,0,1.1237,1.138,1.1127,1.1024,1.1013,1.0923,1.092,1.0916,1.0769,1.0768,1.0766,1.0764,1.0558,1.0552,1.0545,1.0542,0,0,1.0525,1.0522,0,0,0,0,0,0,0,0,1.1245,1.1227,1.1042,1.1031,1.1018,1.0869,1.0934,1.0791,1.077,1.0862,1.0765,1.0763,1.0661,1.0646,1.0611,1.0532,1.0523,1.0524,1.052,1.0517,1.0515,0,0,0,0,0,0,0,1.1256,1.1235,1.1046,1.1039,1.1025,1.0987,1.0963,1.0906,1.0774,1.0854,1.0842,1.082,1.0654,1.0618,1.0605,1.052,1.0524,1.0518,1.0514,1.0512,1.0423,1.0424,0,0,0,0,0,0,1.1283,1.1245,1.1052,1.104,1.1129,1.0984,1.0957,1.0919,1.0775,1.0751,1.0822,1.0814,1.0631,1.0613,1.0597,1.0581,1.0517,1.0511,1.0507,1.0421,1.0423,1.0425,0,0,0,0,0,0,1.1289,1.1267,1.106,1.1139,1.111,1.0981,1.0939,1.0916,1.088,1.0751,1.0726,1.081,1.0628,1.0607,1.0556,1.0572,1.0508,1.0502,1.0419,1.0422,1.0424,1.055,0,0,0,0,0,0,1.1297,1.127,1.1268,1.114,1.1106,1.1024,1.094,1.0913,1.0869,1.0856,1.0733,1.071,1.0625,1.0566,1.0549,1.0561,1.0497,1.0417,1.042,1.0423,1.0544,1.0557,1.0568,0,0,0,0,0,1.1307,1.1313,1.1269,1.1247,1.1102,1.1025,1.1005,1.0908,1.0871,1.0867,1.0784,1.0714,1.0573,1.0563,1.0542,1.0552,1.0415,1.0419,1.0423,1.0539,1.0554,1.0568,0,0,0,0,0,0,1.1447,1.1294,1.1244,1.1209,1.1131,1.1,1.0993,1.0928,1.0858,1.085,1.0731,1.0704,1.0665,1.0603,1.0594,1.0539,1.0485,1.0485,1.0581,1.0594,1.0606,1.0621,1.0491,0,0,0,0,0,1.1474,1.1425,1.1294,1.1276,1.1239,1.1123,1.1086,1.1017,1.0931,1.0898,1.081,1.0729,1.0666,1.0627,1.0562,1.0535,1.0504,1.0531,1.0543,1.0554,1.0554,1.0532,1.0542,1.0437,1.0437,1.0436,0,0,1.1529,1.1439,1.1416,1.1302,1.1233,1.1183,1.1096,1.1049,1.101,1.089,1.0836,1.0769,1.067,1.0631,1.0609,1.0578,1.0576,1.0558,1.0567,1.0562,1.0537,1.0547,1.0556,1.0439,1.0439,1.0438,0,0,1.1603,1.1532,1.1507,1.144,1.1337,1.1259,1.1253,1.1131,1.1082,1.1026,1.0934,1.0886,1.078,1.0713,1.0665,1.0711,1.0643,1.0693,1.0754,1.0733,1.0742,1.0748,1.0762,1.0769,1.0694,1.0695,1.0695,0,1.1684,1.1607,1.1503,1.1459,1.1411,1.1299,1.1272,1.1211,1.1093,1.1061,1.1029,1.0892,1.0818,1.0759,1.077,1.0735,1.0723,1.0706,1.0749,1.0755,1.0759,1.0771,1.0777,1.0701,1.07,1.07,1.0699,0,1.171,1.1658,1.165,1.1538,1.1488,1.1454,1.1342,1.1304,1.1239,1.1165,1.1107,1.1014,1.0927,1.0908,1.0844,1.0839,1.0823,1.0772,1.0715,1.0778,1.0787,1.0791,1.071,1.0708,1.0706,1.0705,0,0,1.1868,1.1696,1.1695,1.1641,1.1518,1.1475,1.1434,1.1348,1.1317,1.1238,1.1199,1.1111,1.1062,1.1008,1.0935,1.0918,1.0956,1.0868,1.0863,1.0886,1.0941,1.0979,1.0986,1.0911,1.0912,1.0912,1.0949,0,1.1922,1.1843,1.1746,1.17,1.1648,1.154,1.1504,1.1424,1.1353,1.1298,1.1218,1.1157,1.1098,1.1064,1.1042,1.0957,1.0966,1.0953,1.0872,1.087,1.0899,1.0991,1.1032,1.1071,1.0952,1.0952,1.0953,0,1.1974,1.19,1.1848,1.1727,1.1701,1.1671,1.1583,1.1532,1.1438,1.1387,1.1325,1.1247,1.1196,1.1147,1.1073,1.1067,1.1028,1.0981,1.098,1.0967,1.0915,1.0979,1.1081,1.1087,1.0958,1.0957,1.0957,0,1.2091,1.1978,1.1932,1.1889,1.1747,1.1728,1.1668,1.1571,1.1525,1.1448,1.1416,1.1335,1.129,1.1227,1.1128,1.1102,1.1065,1.1008,1.1019,1.1022,1.1015,1.1017,1.1111,1.0994,1.0994,1.0994,1.0994,0,1.216,1.2132,1.1982,1.1953,1.1918,1.1806,1.1774,1.1704,1.1619,1.1573,1.1475,1.1434,1.1307,1.125,1.1172,1.1122,1.1103,1.1059,1.1038,1.1066,1.1072,1.1038,1.1032,1.0995,1.0995,1.0995,1.0994,0,1.2284,1.2183,1.2125,1.1995,1.1961,1.194,1.1828,1.1795,1.1717,1.166,1.1641,1.1519,1.1447,1.1342,1.1239,1.1186,1.1146,1.1114,1.1178,1.1166,1.1182,1.1181,1.1256,1.1258,1.1144,1.1145,1.1146,0,1.2334,1.2309,1.2176,1.2138,1.2081,1.2023,1.1974,1.1863,1.1817,1.1706,1.1686,1.1606,1.1536,1.1426,1.1327,1.1247,1.1211,1.1242,1.1198,1.1226,1.1208,1.121,1.1205,1.1253,1.1255,1.1256,1.1257,0,1.2432,1.2382,1.2317,1.2233,1.2178,1.2107,1.2031,1.2006,1.1878,1.183,1.1755,1.1701,1.1595,1.1516,1.1422,1.1358,1.1285,1.1272,1.127,1.1298,1.1335,1.1312,1.1205,1.1271,1.1269,1.1268,1.1268,1.1267,1.2518,1.249,1.2391,1.2321,1.2252,1.2182,1.2144,1.2061,1.1997,1.1901,1.184,1.1767,1.167,1.1536,1.1476,1.1416,1.1386,1.1384,1.1383,1.1384,1.1392,1.1346,1.1399,1.1398,1.1398,1.1397,1.1397,0,1.2608,1.2539,1.2475,1.2372,1.2316,1.2253,1.2165,1.2122,1.2059,1.1976,1.1909,1.1821,1.1743,1.1638,1.1553,1.1525,1.1489,1.1506,1.1506,1.1492,1.1425,1.1435,1.1536,1.1536,1.1536,1.1536,1.1536,1.1536,1.2649,1.2597,1.2536,1.2448,1.2378,1.2307,1.2261,1.2196,1.2128,1.2035,1.197,1.1902,1.1808,1.1715,1.164,1.1611,1.1583,1.1609,1.157,1.1509,1.1497,1.1485,1.1493,1.1605,1.1605,1.164,1.164,1.1641]},{"header":{"parameterUnit":"m.s-1","parameterCategory":1,"la1":30.2991,"la2":30.254,"lo1":-89.0895,"lo2":-89.0444,"dy":0.0017,"dx":0.0017,"nx":28,"ny":28,"refTime":"2025-06-14T03:00:00:Z","depth":0,"parameterNumber":3,"parameterNumberName":"V-component_of_WINDS"},"data":[0,0,0,0,0,0,0,0,0,0,0,0,0,0,0,0,0,0,0,0,0,0,0,0,0,0,0,0,0,0,0,0,0,0,0,0,0,0,0,0,0,0,0,0,0,0,0,0,0,0,0,0,0,0,0,0,0,0,5.1247,5.1247,0,5.1246,5.1246,5.1246,5.1192,5.1191,5.1189,5.1188,5.1186,5.1187,5.1189,0,0,0,0,0,0,0,0,0,0,0,0,0,5.12,5.1201,5.1247,5.1247,5.1247,5.1246,5.1246,5.1246,5.1192,5.1191,5.1189,5.1187,5.1186,5.1187,5.1189,0,0,0,0,0,0,0,0,0,0,0,0,0,5.1212,5.1202,5.1247,5.122,5.1217,5.1246,5.1246,5.1246,5.1193,5.1191,5.1189,5.1187,5.1185,5.1187,5.1189,5.1243,0,0,5.1195,5.1196,0,0,0,0,0,0,0,0,5.1211,5.1214,5.1224,5.1222,5.1219,5.1217,5.1229,5.1245,5.1193,5.1202,5.1188,5.1186,5.1198,5.1199,5.1203,5.1243,5.1243,5.1195,5.1196,5.1197,5.1197,0,0,0,0,0,0,0,5.1211,5.1213,5.1246,5.1224,5.1221,5.1207,5.1207,5.1232,5.1212,5.1201,5.1197,5.1198,5.1196,5.1202,5.1203,5.1243,5.1195,5.1197,5.1198,5.1198,5.1326,5.1328,0,0,0,0,0,0,5.1214,5.1213,5.1246,5.1246,5.121,5.121,5.1209,5.122,5.1211,5.1208,5.12,5.1196,5.1199,5.1201,5.1203,5.1264,5.1197,5.1199,5.12,5.1324,5.1326,5.1329,0,0,0,0,0,0,5.1213,5.1217,5.1246,5.1229,5.1231,5.1213,5.1225,5.1221,5.1226,5.121,5.1206,5.1209,5.1198,5.12,5.1233,5.1264,5.1199,5.1201,5.1321,5.1324,5.1328,5.1389,0,0,0,0,0,0,5.1212,5.1217,5.1238,5.123,5.1233,5.1277,5.1227,5.1222,5.123,5.1224,5.1218,5.1215,5.1196,5.1231,5.1235,5.1265,5.1203,5.1318,5.1322,5.1326,5.1384,5.1394,5.1403,0,0,0,0,0,5.121,5.1255,5.1239,5.1243,5.1258,5.1279,5.1281,5.1259,5.1232,5.1252,5.1242,5.1215,5.126,5.1235,5.1239,5.127,5.1316,5.1321,5.1326,5.138,5.1392,5.1402,0,0,0,0,0,0,5.1266,5.1253,5.1235,5.1279,5.1281,5.127,5.1295,5.1273,5.1282,5.1276,5.1248,5.1247,5.1285,5.1281,5.1253,5.1322,5.1283,5.1289,5.1323,5.1334,5.1343,5.1343,5.1204,0,0,0,0,0,5.1284,5.1303,5.129,5.1329,5.1331,5.1313,5.1322,5.1305,5.1305,5.1306,5.1298,5.13,5.1314,5.1324,5.1336,5.1384,5.1381,5.1408,5.1417,5.1424,5.143,5.1454,5.1465,5.1345,5.1345,5.1345,0,0,5.1319,5.1315,5.1328,5.134,5.134,5.136,5.1314,5.1337,5.1351,5.1309,5.134,5.1335,5.1334,5.1375,5.1393,5.1373,5.1463,5.1431,5.1437,5.1438,5.1461,5.1472,5.1482,5.1349,5.1348,5.1348,0,0,5.1395,5.1394,5.1426,5.1427,5.1427,5.1415,5.1423,5.1416,5.1411,5.1442,5.141,5.1427,5.1452,5.1453,5.1457,5.1534,5.1509,5.1539,5.1587,5.1611,5.1621,5.1629,5.1656,5.1666,5.1545,5.1545,5.1545,0,5.1439,5.1468,5.1445,5.147,5.1476,5.144,5.1473,5.1474,5.1478,5.1483,5.1461,5.1493,5.149,5.153,5.1549,5.1554,5.1561,5.1539,5.1621,5.1629,5.1637,5.1662,5.1672,5.1549,5.1548,5.1548,5.1547,0,5.1522,5.1543,5.1569,5.1575,5.1584,5.1613,5.1594,5.1606,5.1589,5.1579,5.1611,5.1606,5.1617,5.1626,5.1609,5.1664,5.1651,5.1626,5.1587,5.1652,5.1675,5.1685,5.1554,5.1552,5.1551,5.155,0,0,5.1631,5.1625,5.1634,5.1636,5.1634,5.165,5.1677,5.1688,5.1699,5.1703,5.1725,5.1748,5.1724,5.1729,5.1712,5.1734,5.1794,5.1705,5.1705,5.1721,5.1854,5.1872,5.1884,5.1778,5.178,5.1781,5.1854,0,5.1703,5.175,5.173,5.1778,5.1797,5.1763,5.1787,5.1788,5.178,5.1794,5.1785,5.1802,5.177,5.1772,5.1792,5.1783,5.182,5.1777,5.1797,5.1798,5.1797,5.1896,5.1916,5.1984,5.1863,5.1864,5.1865,0,5.1793,5.1802,5.1852,5.1847,5.1854,5.1876,5.1885,5.1899,5.19,5.1893,5.1898,5.1877,5.1903,5.1865,5.19,5.1871,5.1878,5.1875,5.1877,5.1877,5.1835,5.1898,5.2005,5.2015,5.1879,5.1878,5.1877,0,5.1867,5.1891,5.1924,5.1927,5.1922,5.1938,5.1937,5.1936,5.1944,5.1952,5.1957,5.1967,5.1973,5.1982,5.1964,5.1938,5.2001,5.1962,5.1995,5.1996,5.2009,5.2008,5.2118,5.2016,5.2016,5.2015,5.2015,0,5.1949,5.198,5.1957,5.1977,5.2012,5.1989,5.2024,5.2019,5.2019,5.2037,5.2009,5.2027,5.2002,5.2018,5.2004,5.2035,5.2038,5.2032,5.2028,5.2034,5.2035,5.2037,5.2032,5.2018,5.2017,5.2017,5.2016,0,5.2035,5.2021,5.2055,5.2048,5.2047,5.2073,5.2067,5.2085,5.2076,5.2099,5.2104,5.2089,5.2105,5.2089,5.2104,5.2095,5.2136,5.2125,5.2136,5.2133,5.2167,5.2163,5.2281,5.2295,5.2185,5.2186,5.2187,0,5.2088,5.2112,5.2108,5.2119,5.2119,5.2137,5.2145,5.2125,5.2134,5.2138,5.2155,5.217,5.218,5.2209,5.2199,5.221,5.2199,5.224,5.2201,5.2206,5.2199,5.2197,5.2199,5.2247,5.2249,5.225,5.225,0,5.2182,5.2175,5.2188,5.2199,5.2211,5.2218,5.2224,5.2234,5.2213,5.2225,5.2242,5.2251,5.2267,5.2282,5.2291,5.2289,5.2266,5.2263,5.2271,5.2277,5.2282,5.2279,5.2156,5.226,5.2259,5.2258,5.2258,5.2258,5.2253,5.2272,5.2273,5.2289,5.2291,5.2298,5.2314,5.2308,5.2322,5.2334,5.2321,5.2342,5.2342,5.2352,5.2353,5.2369,5.2352,5.2364,5.2367,5.237,5.2374,5.2281,5.2371,5.237,5.237,5.237,5.237,0,5.2345,5.2344,5.2359,5.2368,5.2381,5.236,5.2365,5.2377,5.2396,5.2399,5.241,5.243,5.2444,5.2436,5.2448,5.2463,5.2452,5.2466,5.2464,5.2464,5.2389,5.2381,5.2474,5.2474,5.2474,5.2474,5.2474,5.2474,5.2394,5.2426,5.2419,5.2451,5.245,5.2471,5.2476,5.2481,5.2483,5.2507,5.2519,5.2514,5.2512,5.2524,5.2537,5.2534,5.2539,5.2557,5.255,5.248,5.247,5.246,5.2451,5.2558,5.2558,5.2623,5.2624,5.2625]}]]